Regional Weather Roundup
Issued by NWS New Orleans/Baton Rouge, LA

Home | Current Version | Previous Version | Text Only | Print | Product List | Glossary On
Versions: 1 2 3 4 5 6 7 8 9 10 11 12 13 14 15 16 17 18 19 20 21 22 23 24 25 26 27 28 29 30 31 32 33 34 35 36 37 38 39 40 41 42 43 44 45 46 47 48 49 50
000
ASUS44 KLIX 032212
RWRLIX
NEW ORLEANS REGIONAL WEATHER ROUNDUP
NATIONAL WEATHER SERVICE NEW ORLEANS LA
500 PM CDT THU SEP 03 2015

NOTE: "FAIR" INDICATES FEW OR NO CLOUDS BELOW 12,000 FEET WITH NO
      SIGNIFICANT WEATHER AND/OR OBSTRUCTIONS TO VISIBILITY.
      SKY/WX - SKY CONDITION AND SIGNIFICANT WEATHER.
      TMP - AIR TEMPERATURE.     DP    - DEWPOINT TEMPERATURE.
      RH  - RELATIVE HUMIDITY.   PRES  - PRESSURE.
      HI  - HEAT INDEX.          WCI   - WIND CHILL INDEX.

*  THESE STATIONS ARE NOT NWS OR FAA STATIONS AND ARE NOT UNDER
   NWS QUALITY CONTROL.

LAZ038-040-048-061>063-065>067-069-032300-
SOUTHEAST LOUISIANA

CITY           SKY/WX    TMP DP  RH WIND       PRES   REMARKS
N.O. AUDUBON     N/A     82  78  88 MISG        N/A
N.O. INTL ARPT PTSUNNY   82  73  74 S10       29.92F
N.O. LAKEFRONT PTSUNNY   83  74  74 SE10      29.93F
N.O. DOWNTOWN*   N/A     84  75  74 S8        29.93F
RESERVE*       NOT AVBL
SLIDELL        PTSUNNY   85  75  72 S10       29.92F
BATON ROUGE    MOSUNNY   89  72  56 E13G20    29.91F HX  96
BOOTHVILLE     PTSUNNY   80  74  81 S7        29.94F
BELLE CHASSE   PTSUNNY   81  74  79 S7        29.92F
BOGALUSA*      NOT AVBL
GALLIANO*      CLOUDY    86  76  70 S8        29.92F HX  96
NEW ROADS*       N/A     89  74  62 SE13      29.90F HX  97
GONZALES*        N/A     83  75  77 S6        29.91F
HAMMOND*       PTSUNNY   88  72  58 E8        29.93F
HOUMA*         NOT AVBL
PORT FOURCHON* CLEAR     82  73  74 S8G14     29.94F

$$

MSZ070-080>082-032300-
SOUTHERN MISSISSIPPI

CITY           SKY/WX    TMP DP  RH WIND       PRES   REMARKS
MCCOMB         MOSUNNY   84  74  71 S7        29.93F
GULFPORT       PTSUNNY   84  73  69 VRB5      29.93F
BILOXI         PTSUNNY   84  74  72 SW8       29.93F
PASCAGOULA     MOSUNNY   85  76  74 VRB3      29.93F
STENNIS ARPT*  PTSUNNY   82  70  65 S6        29.93F

$$

COASTAL OBSERVATIONS
LAKE AND NEARSHORE STATIONS

STATION/POSITION TIME  TEMP    WIND        PRES    WAVE
                       AIR SEA DIR/SP/G            HT/PER
                 (UTC) (F)     (DEG/KT/KT) (MB)    (FT/S)
PASCAGOULA       2100   84     220/ 11/ 15 1013.8
WAVELAND YACHT   2100   81 87  190/  5/ 10 1014.6
GRAND ISLE       2100   83 85  170/  7/  9 1014.5
SOUTHWEST PASS   2100   80 86  160/  5/ 10 1014.7
NEW CANAL        2100   85 85  150/  4/  8 1013.3
SHELL BEACH      2100   81 85  130/ 11/ 15 1013.7

OFFSHORE STATIONS

STATION/POSITION TIME  TEMP    WIND        PRES    WAVE
                       AIR SEA DIR/SP/G            HT/PER
                 (UTC) (F)     (DEG/KT/KT) (MB)    (FT/S)
64 S DAUPHIN ISL 2150   78 84  190/  8/  8 1013.7    1/ 3

$$



USA.gov is the U.S. government's official web portal to all federal, state and local government web resources and services.